Regional Weather Roundup
Issued by NWS

Home | Current Version | Previous Version | Text Only | Print | Product List | Glossary On
Versions: 1 2 3 4 5 6 7 8 9 10 11 12 13 14 15 16 17 18 19 20 21 22 23 24 25 26 27 28 29 30 31 32 33 34 35 36 37 38 39 40 41 42 43 44 45 46 47 48 49 50
641
ASUS44 KJAN 250010
RWRMS

MISSISSIPPI HOURLY WEATHER ROUNDUP
NATIONAL WEATHER SERVICE JACKSON MS
600 PM CST MON NOV 24 2014

NOTE: "FAIR: INDICATES FEW OR NO CLOUDS BELOW 12,000 FEET WITH NO
SIGNIFICANT WEATHER AND/OR OBSTRUCTIONS TO VISIBILITY.

MSZ001>002-007>008-010>013-018>021-025>028-034>036-250100-
NORTHWEST MISSISSIPPI

CITY           SKY/WX    TMP DP  RH WIND       PRES   REMARKS
CLARKSDALE     FAIR      50  37  62 CALM      30.01R
CLEVELAND      FAIR      50  43  77 SW3       30.01R
GREENWOOD      CLEAR     49  37  63 CALM      30.02R
6HR MIN TEMP:  48; 6HR MAX TEMP:  59;

GREENVILLE     CLEAR     51  34  52 W5        30.01R
6HR MIN TEMP:  50; 6HR MAX TEMP:  60;

GRENADA        FAIR      45  36  70 CALM      30.01R
OLIVE BRANCH   PTCLDY    46  34  61 CALM      29.98R
OXFORD         FAIR      43  34  70 CALM      30.01R
TUNICA         CLEAR     46  36  66 SW7       30.00R
$$

MSZ003>006-009-014>017-022>024-029>033-037>039-250100-
NORTHEAST MISSISSIPPI

CITY           SKY/WX    TMP DP  RH WIND       PRES   REMARKS
COLUMBUS AFB   CLEAR     50  37  60 W8        29.99R
6HR MIN TEMP:  50; 6HR MAX TEMP:  62;

CORINTH        FAIR      50  34  53 W6        29.97R
GOLDN TRIANGLE CLEAR     52  36  54 W5        29.98R
STARKVILLE     FAIR      50  36  57 NW3       29.99R
TUPELO         CLEAR     51  33  50 W3        29.99R
6HR MIN TEMP:  51; 6HR MAX TEMP:  61;

$$

MSZ040-058-250100-
CENTRAL MISSISSIPPI

CITY           SKY/WX    TMP DP  RH WIND       PRES   REMARKS
JACKSON INTL   PTCLDY    49  37  63 N5        30.01R
6HR MIN TEMP:  49; 6HR MAX TEMP:  63;

JACKSON HAWKNS PTCLDY    53  34  48 NW3       30.02R
6HR MIN TEMP:  53; 6HR MAX TEMP:  62;

MERIDIAN KEY   CLEAR     51  40  65 NW7       29.97R
6HR MIN TEMP:  51; 6HR MAX TEMP:  64;

MERIDIAN NAS   MOCLDY    52  44  74 NW6       29.97R
6HR MIN TEMP:  52; 6HR MAX TEMP:  65;

RAYMOND        FAIR      48  45  87 MISG      30.03R
VICKSBURG      CLEAR     44  37  76 NW5       30.04R
6HR MIN TEMP:  44; 6HR MAX TEMP:  62;

$$

MSZ059>079-250100-
SOUTH MISSISSIPPI

CITY           SKY/WX    TMP DP  RH WIND       PRES   REMARKS
BROOKHAVEN     FAIR      54  37  54 CALM      30.01R
COLUMBIA       FAIR      55  41  58 MISG        N/A
HATTIESBURG    PTCLDY    59  44  57 N7        29.97R
6HR MIN TEMP:  59; 6HR MAX TEMP:  69;

MCCOMB         CLEAR     53  35  50 N6        30.00R
6HR MIN TEMP:  53; 6HR MAX TEMP:  65;

NATCHEZ        PTCLDY    52  36  54 CALM      30.03R
6HR MIN TEMP:  52; 6HR MAX TEMP:  61;

PINE BELT      PTCLDY    55  37  50 N7        29.98R
6HR MIN TEMP:  55; 6HR MAX TEMP:  66;

$$

MSZ080>082-250100-
COASTAL MISSISSIPPI

CITY           SKY/WX    TMP DP  RH WIND       PRES   REMARKS
BAY ST LOUIS   CLEAR     59  45  58 N5        29.96R
BILOXI         MOCLDY    64  50  59 N7        29.94R
6HR MIN TEMP:  64; 6HR MAX TEMP:  78;

PASCAGOULA     CLOUDY    65  49  56 N13       29.92R
6HR MIN TEMP:  65; 6HR MAX TEMP:  80;

GULFPORT       MOCLDY    63  48  58 N8        29.94R
6HR MIN TEMP:  63; 6HR MAX TEMP:  76;

$$



USA.gov is the U.S. government's official web portal to all federal, state and local government web resources and services.